Location: *
(46.1866°S, 178.5290°W)
Time: 19:11:03
(UTC+00:00)

H-2A R/B - Pass Details

Date: 19 May 2021
Orbit: 576 x 655 km, 98.5° (Epoch: 18 June)

Event Time Altitude Azimuth Distance (km) Brightness Sun altitude
Rises 05:45:52 0° 346° (NNW) 2,803 5.8 -13.4°
Reaches altitude 10° 05:48:18 10° 333° (NNW) 1,907 5.2 -13.8°
Maximum altitude 05:51:46 26° 276° (W) 1,179 4.4 -14.4°
Drops below altitude 10° 05:55:16 10° 218° (SW) 1,927 4.9 -14.9°
Sets 05:57:45 0° 205° (SSW) 2,839 5.6 -15.4°
